This demonstration page uses our WeatherBlox Daily Observations layout. Learn more.

Left ArrowRight Arrow

39.08367, -84.50855

Hourly Observations for July 6, 2015

Temp ( °F °C ) Dew Point ( °F °C ) Humidity (%) Winds ( mph kmh ) Pressure ( in mb ) Visibility ( mi km ) Precip ( " mm )
12:53 am 00:53 Clear 67 19.4 65 18.3 93 93 Calm 30.06 1018 9 14 0.00 0.00
1:53 am 01:53 Clear 66 18.9 65 18.3 96 96 Calm 30.04 1017 8 13 0.00 0.00
2:53 am 02:53 Clear with Mist and Fog 64 17.8 64 17.8 100 100 Calm 30.04 1017 6 10 0.00 0.00
3:53 am 03:53 Clear with Mist and Fog 63 17.2 63 17.2 100 100 Calm 30.04 1017 4 6 0.00 0.00
4:07 am 04:07 Clear with Mist and Fog 62 16.7 62 16.7 100 100 E 3 6 30.03 1017 2 3 0.00 0.00
4:20 am 04:20 Clear with Mist and Fog 63 17.2 63 17.2 100 100 Calm 30.03 1017 3 5 0.00 0.00
4:53 am 04:53 Clear with Mist and Fog 62 16.7 62 16.7 100 100 Calm 30.05 1018 1 2 0.00 0.00
5:00 am 05:00 Mostly Cloudy with Mist and Fog 63 17 63 17 100 100 Calm 30.03 1017 1 2 0.00 0.00
5:10 am 05:10 Partly Cloudy with Mist and Fog 63 17 63 17 100 100 Calm 30.03 1017 2 3 0.00 0.00
5:12 am 05:12 Partly Cloudy with Mist and Fog 63 17 63 17 100 100 Calm 30.03 1017 3 5 0.00 0.00
5:53 am 05:53 Mostly Clear with Mist and Fog 62 16.7 62 16.7 100 100 Calm 30.07 1018 3 4 0.00 0.00
6:09 am 06:09 Mostly Cloudy with Mist and Fog 61 16.1 61 16.1 100 100 SE 3 6 30.06 1018 1 1 0.00 0.00
6:17 am 06:17 Mostly Clear with Mist and Fog 61 16.1 61 16.1 100 100 Calm 30.06 1018 1 2 0.00 0.00
6:25 am 06:25 Partly Cloudy with Mist and Fog 61 16.1 61 16.1 100 100 Calm 30.06 1018 2 3 0.00 0.00
6:27 am 06:27 Mostly Cloudy with Mist and Fog 62 16.7 61 16.1 96 96 Calm 30.06 1018 1 2 0.00 0.00
6:36 am 06:36 Partly Cloudy with Mist and Fog 63 17 63 17 100 100 Calm 30.06 1018 2 3 0.00 0.00
6:43 am 06:43 Sunny with Mist and Fog 61 16.1 61 16.1 100 100 Calm 30.06 1018 1 1 0.00 0.00
6:53 am 06:53 Sunny with Patchy Fog 62 16.7 62 16.7 100 100 Calm 30.09 1019 3 5 0.00 0.00
6:55 am 06:55 Partly Cloudy with Patchy Fog 62 16.7 62 16.7 100 100 Calm 30.06 1018 3 5 0.00 0.00
7:53 am 07:53 Sunny with Mist and Fog 65 18.3 64 17.8 97 97 Calm 30.09 1019 3 5 0.00 0.00
8:00 am 08:00 Mostly Cloudy with Mist and Fog 64 18 64 18 100 100 Calm 30.09 1019 4 6 0.00 0.00
8:32 am 08:32 Sunny with Mist and Fog 66 19 66 19 100 100 Calm 30.09 1019 6 10 0.00 0.00
8:53 am 08:53 Sunny 68 20 66 18.9 93 93 S 3 6 30.10 1019 7 11 0.00 0.00
9:53 am 09:53 Sunny 73 22.8 67 19.4 81 81 SSE 3 6 30.10 1019 9 14 0.00 0.00
10:53 am 10:53 Sunny 76 24.4 64 17.8 67 67 W 5 7 30.09 1019 10 16 0.00 0.00
11:53 am 11:53 Sunny 79 26.1 64 17.8 60 60 W 8 13 30.09 1019 10 16 0.00 0.00
12:53 pm 12:53 Sunny 80 26.7 64 17.8 58 58 W 8 13 30.08 1019 10 16 0.00 0.00
1:53 pm 13:53 Mostly Sunny 82 27.8 63 17.2 53 53 VRB 3 6 30.08 1019 10 16 0.00 0.00
2:53 pm 14:53 Mostly Sunny 83 28.3 62 16.7 49 49 W 6 9 30.06 1018 10 16 0.00 0.00
3:53 pm 15:53 Mostly Sunny 84 28.9 63 17.2 49 49 W 9 15 30.04 1017 9 14 0.00 0.00
4:53 pm 16:53 Mostly Sunny 83 28.3 65 18.3 55 55 S 7 11 30.01 1016 9 14 0.00 0.00
5:53 pm 17:53 Mostly Sunny 84 28.9 67 19.4 57 57 S 12 19 29.99 1016 8 13 0.00 0.00
6:53 pm 18:53 Mostly Sunny 82 27.8 68 20 63 63 S 8 13 29.99 1016 8 13 0.00 0.00
7:53 pm 19:53 Mostly Sunny 80 26.7 69 20.6 69 69 S 6 9 29.98 1015 8 13 0.00 0.00
8:53 pm 20:53 Mostly Sunny 76 24.4 70 21.1 82 82 S 3 6 29.98 1015 7 11 0.00 0.00
9:53 pm 21:53 Partly Cloudy 73 22.8 70 21.1 90 90 Calm 29.98 1015 7 11 0.00 0.00
10:53 pm 22:53 Partly Cloudy 71 21.7 69 20.6 94 94 SSW 3 6 30.01 1016 7 11 0.00 0.00
11:53 pm 23:53 Clear 73 22.8 69 20.6 87 87 SSW 7 11 30.00 1016 8 13 0.00 0.00

Powered by AerisWeather